Location: Audinghen
(50.8518°N, 1.6129°E)
Time: 08:04:04
(UTC+00:00)

USA 267 - Pass Details

Date: 07 August 2020
Orbit: 1101 x 1106 km, 123.0° (Epoch: 22 September)

Event Time Altitude Azimuth Distance (km) Brightness Sun altitude
Rises 00:30:58 0° 90° (E) 3,920 6.3 -22.5°
Reaches altitude 10° 00:33:29 10° 86° (E) 2,964 5.7 -22.4°
Maximum altitude 00:39:50 56° 11° (N) 1,294 3.9 -22.2°
Drops below altitude 10° 00:46:13 10° 295° (WNW) 2,970 5.7 -22.0°
Sets 00:48:44 0° 291° (WNW) 3,930 6.3 -21.9°
